Home > Weather > Kailua-Kona > Past weeks

Flag for USA Past Weather in Kailua-Kona, Hawaii, USA — Yesterday and Last 2 Weeks

Now
86 °F

Scattered clouds.


Feels Like: 92 °F
Forecast: 70 / 79 °F
Wind: 13 mph from Southwest

Location: Keahole Airport

Current Time: Jul 28, 2016 at 4:10:11 PM

Latest Report: Jul 28, 2016 at 2:53 PM


Visibility: 10 mi

Pressure: 29.92 "Hg

Humidity: 63%

Dew Point: 72 °F

Location of Kailua-KonaLocation

Past Weather in Kailua-Kona — Graph

°F

Kailua-Kona Temperature Yesterday

Maximum temperature yesterday: 87 °F (at 11:53 AM)
Minimum temperature yesterday: 78 °F (at 3:53 AM)
Average temperature yesterday: 82 °F

High & Low Weather Summary for the Past Weeks

 TemperatureHumidityPressure
High90 °F (Jul 22, 3:53 PM)96% (Jul 23, 6:00 AM)30.03 "Hg (Jul 23, 6:00 AM)
Low75 °F (Jul 14, 5:53 AM)51% (Jul 20, 7:53 AM)29.70 "Hg (Jul 23, 3:53 PM)
Average83 °F71%29.93 "Hg
* Reported Jul 13 2:53 PM — Jul 28 2:53 PM, Kailua-Kona, Weather by CustomWeather, © 2016

Note: Actual official high and low records may vary slightly from our data, if they occured in-between our weather recording intervals... More about our weather records

Advertising

Kailua-Kona Weather History for the Previous 24 Hours

Scroll right to see more
 ConditionsComfort  
Time TempWeatherWind HumidityBarometerVisibility
2:53 PM
Thu, Jul 28
86 °FScattered clouds.13 mph63%29.92 "Hg10 mi
1:53 PM86 °FPartly sunny.14 mph63%29.93 "Hg10 mi
12:53 PM87 °FScattered clouds.15 mph63%29.95 "Hg10 mi
11:53 AM89 °FSunny.15 mph59%29.95 "Hg10 mi
10:53 AM85 °FScattered clouds.12 mph61%29.96 "Hg10 mi
9:53 AM84 °FPartly sunny.6 mph65%29.96 "Hg10 mi
8:53 AM83 °FScattered clouds.7 mph68%29.96 "Hg10 mi
7:53 AM83 °FScattered clouds.7 mph70%29.96 "Hg10 mi
6:53 AM80 °FScattered clouds.6 mph74%29.95 "Hg10 mi
5:53 AM78 °FClear.7 mph74%29.93 "Hg10 mi
4:53 AM77 °FClear.3 mph74%29.91 "Hg10 mi
3:53 AM78 °FClear.3 mph71%29.91 "Hg10 mi
2:53 AM79 °FClear.3 mph74%29.91 "Hg10 mi
2:22 AM81 °FPassing clouds.3 mph70%29.91 "Hg10 mi
1:53 AM80 °FOvercast.3 mph69%29.92 "Hg10 mi
1:29 AM81 °FMostly cloudy.3 mph70%29.93 "Hg10 mi
12:53 AM79 °FPartly cloudy.5 mph72%29.93 "Hg10 mi
11:53 PM
Wed, Jul 27
80 °FClear.3 mph74%29.96 "Hg10 mi
10:53 PM81 °FClear.9 mph72%29.96 "Hg10 mi
9:53 PM80 °FPassing clouds.8 mph67%29.97 "Hg10 mi
8:53 PM81 °FPassing clouds.14 mph65%29.96 "Hg10 mi
7:53 PM83 °FOvercast.15 mph63%29.95 "Hg10 mi
6:53 PM84 °FPartly sunny.9 mph61%29.93 "Hg10 mi
5:53 PM84 °FMostly cloudy.7 mph67%29.91 "Hg10 mi
4:53 PM84 °FMostly cloudy.9 mph67%29.90 "Hg10 mi
Weather by CustomWeather, © 2016

See weather overviewHow to use our weather pages